Regional Weather Roundup
Issued by NWS

Home | Current Version | Previous Version | Graphics & Text | Print | Product List | Glossary On
Versions: 1 2 3 4 5 6 7 8 9 10 11 12 13 14 15 16 17 18 19 20 21 22 23 24 25 26 27 28 29 30 31 32 33 34 35 36 37 38 39 40 41 42 43 44 45 46 47 48 49 50
000
ASUS45 KTFX 102110
RWRMT
MONTANA REGIONAL WEATHER ROUNDUP
NATIONAL WEATHER SERVICE GREAT FALLS MT
200 PM MST SAT DEC 10 2016

NOTE: "FAIR" INDICATES FEW OR NO CLOUDS BELOW 12000 FEET WITH NO
SIGNIFICANT WEATHER AND/OR OBSTRUCTIONS TO VISIBILITY.

MTZ001>007-043-102200-
WEST OF THE DIVIDE

CITY           SKY/WX    TMP DP  RH WIND       PRES   REMARKS
KALISPELL      CLOUDY    14   8  77 E3        29.82R
MISSOULA       PTSUNNY   21  16  81 CALM      29.81R
BUTTE          CLOUDY    32  22  66 NW16      29.65R WCI  21
MULLAN PASS    FOG       17  15  92 NW7       29.68R VSB 3/4 WCI   8
ANACONDA         N/A     34  18  51 W16G25    29.65S WCI  23
DEER LODGE       N/A     28  21  74 NE8       29.71R WCI  20
EUREKA           N/A     12   1  62 CALM      29.87S
HAMILTON         N/A     23  16  74 N5        29.78R
LIBBY            N/A     21  12  68 CALM      29.84S
RONAN            N/A     18  10  70 CALM      29.85S
$$

MTZ008-052>055-102200-
SOUTHWEST MONTANA

CITY           SKY/WX    TMP DP  RH WIND       PRES   REMARKS
BOZEMAN        LGT SNOW  21  17  84 CALM      29.66R FOG
DILLON         CLOUDY    31  24  75 NE8       29.66R WCI  23
W YELLOWSTONE  CLOUDY    32  27  80 SW22G32   29.64S WCI  19
ENNIS          MOSUNNY   39  28  65 S12G21    29.66R WCI  32
$$

MTZ009-010-012-014-046-048-049-054-102200-
EAST SLOPES AND CENTRAL MONTANA

CITY           SKY/WX    TMP DP  RH WIND       PRES   REMARKS
CUT BANK       SUNNY      5  -3  69 N5        29.69S
GREAT FALLS    CLOUDY     9   3  77 CALM      29.69R
MALMSTROM AFB  FLURRIES   8   4  83 SE2       29.71S
HELENA         CLOUDY    15   8  73 CALM      29.70R
AUGUSTA          N/A      6   3  88 N6        29.61S WCI  -5
BOWMANS CRNR     N/A      2  -2  83 NE9       29.62R WCI -12
CHOTEAU          N/A      9   0  66 MISG      29.67S
FAIRFIELD        N/A      6   2  84 NW5       29.67R
POWER            N/A      6   2  86 N1        29.68S
ULM              N/A      6   1  81 SE3G14    29.71R
$$

MTZ011-013-016-021-045-047-050-051-102200-
NORTH CENTRAL MONTANA

CITY           SKY/WX    TMP DP  RH WIND       PRES   REMARKS
HAVRE          SNOW       6   2  83 E8        29.79R VSB 1/2 WCI  -7
LEWISTOWN      CLOUDY    13   9  84 SE5       29.57F
N BAR RANCH    PTSUNNY   16  14  93 N5        29.59S FOG
CHINOOK          N/A      5   0  78 E9        29.79F VSB 1/4 WCI  -9
FORT BENTON      N/A      9   1  72 N3        29.75F
GEYSER         FLURRIES   9   5  82 W6        29.65R WCI  -1
GRASS RANGE    SNOWSHWR  11   7  86 SE6       29.58F WCI   1
JUDITH GAP     FLURRIES  24  21  89 S12G17    29.58R WCI  13
ROY            LGT SNOW   9   7  92 MISG      29.62S
STANFORD       FLURRIES   9   7  89 N14       29.60R WCI  -7
$$

MTZ017>020-022>027-061-062-102200-
NORTHEAST MONTANA

CITY           SKY/WX    TMP DP  RH WIND       PRES   REMARKS
GLASGOW        LGT SNOW   1  -4  79 E17G25    29.83F VSB 3/4 WCI -19
JORDAN           N/A     10   6  84 E10       29.74F WCI  -4
SIDNEY         CLOUDY     5  -3  69 SE14      29.95F WCI -12
WOLF POINT     LGT SNOW   5  -2  72 E14       29.92F WCI -12
PLENTYWOOD       N/A      0  -4  85 E17       29.94F WCI -21
$$

MTZ028>42-056>058-102200-
SOUTHCENTRAL AND SOUTHEAST MONTANA

CITY           SKY/WX    TMP DP  RH WIND       PRES   REMARKS
BAKER          CLOUDY     3  -3  76 SE22      29.78F WCI -19
BILLINGS       CLOUDY    12   9  87 SE6       29.62F FOG     WCI   3
LIVINGSTON     LGT SNOW  22  18  85 SW5       29.60R FOG
MILES CITY     CLOUDY    12   2  64 SE10      29.75F WCI  -1
BIG TIMBER     FOG       14  10  85 CALM      29.63R VSB 1/2
FORSYTH          N/A     12   7  79 E9        29.70F WCI   0
HARLOWTON      FLURRIES  19  16  90 W10       29.60R WCI   7
LAUREL           N/A     14   0  54 NE6       29.64F WCI   5
$$

REGIONAL REPORTS...DAKOTAS

CITY           SKY/WX    TMP DP  RH WIND       PRES   REMARKS
WILLISTON      FLURRIES   2  -6  69 SE16      30.00F WCI -18
MINOT          CLOUDY    -8 -13  78 E9        30.13F WCI -25
DICKINSON      CLOUDY    -1  -7  75 E18       29.88F WCI -22
BEACH          PTSUNNY    1   0  92 SE18      29.87S WCI -19
CROSBY         PTSUNNY    0  -2  92 E13       30.06F WCI -18
TIOGA          PTSUNNY   -2  -4  92 SE15      30.02F FOG     WCI -22
WATFORD CITY   CLOUDY     0  -8  71 E20       29.98F HAZE    WCI -22
BISMARCK       LGT SNOW  -4  -8  83 E9        30.13F FOG     WCI -20
GRAND FORKS    CLOUDY    -2  -9  72 SE5       30.36F
FARGO          CLOUDY     2  -7  66 E7        30.32F HAZE    WCI -11
BUFFALO SD       N/A      4  -2  76 SE21      29.71F WCI -17
RAPID CITY     CLOUDY     8   2  76 E6        29.80F WCI  -2
$$

REGIONAL REPORTS...WYOMING/IDAHO/WASHINGTON

CITY           SKY/WX    TMP DP  RH WIND       PRES   REMARKS
GILLETTE       CLOUDY    19  14  81 SE12      29.59F WCI   7
SHERIDAN       CLOUDY    18  10  71 W6        29.59F WCI  10
BUFFALO WY     CLOUDY    29  21  72 S7        29.56F WCI  22
CODY           CLOUDY    32  26  78 S6        29.55F WCI  26
YELLOWSTONE LA   N/A     28  25  88 W12G22    29.65R WCI  18
IDAHO FALLS    CLOUDY    35  33  92 SW29G37   29.74S FOG     WCI  22
SALMON         CLOUDY    25  19  80 CALM      29.77R
BOISE          FOG       34  34 100 NW6       29.87F VSB<1/4 WCI  29
SPOKANE        CLOUDY    20  18  92 S6        29.90S WCI  12
$$

REGIONAL REPORTS...ALBERTA

CITY           SKY/WX    TMP DP  RH WIND       PRES   REMARKS
EDMONTON       CLOUDY    -6 -15  65 NE3       29.96F
CALGARY        LGT SNOW  -2  -8  78 E8        29.73F WCI -17
LETHBRIDGE     LGT SNOW   0  -4  85 VRB2      29.79R VSB 1
MEDICINE HAT   LGT SNOW   5   1  85 NW8       29.84S WCI  -8
WATERTON GATE    N/A      3  -6  66 NE8         N/A  WCI -10
MILK RIVER       N/A      7   1  78 N2          N/A
ONEFOUR          N/A      3   0  85 NE6         N/A  WCI  -8
$$

REGIONAL REPORTS...SASKATCHEWAN

CITY           SKY/WX    TMP DP  RH WIND       PRES   REMARKS
SWIFT CURRENT  FLURRIES   3   0  85 SE17G24   29.82F WCI -17
REGINA         MOSUNNY   -6 -11  77 SE15G21   30.06F WCI -27
SASKATOON      MOSUNNY    1  -6  71 SE10      30.08F WCI -14
CYPRESS HILLS    N/A      1  -4  78 SE5         N/A
VAL MARIE        N/A      3  -2  78 SE12        N/A  WCI -13
$$



USA.gov is the U.S. government's official web portal to all federal, state and local government web resources and services.